Location: Morisset
(33.1080°S, 151.4871°E)
Time: 07:48:01
(UTC+00:00)

Cosmos 1464 Rocket - Pass Details

Date: 29 October 2020
Orbit: 952 x 1001 km, 82.9° (Epoch: 28 November)

Event Time Altitude Azimuth Distance (km) Brightness Sun altitude
Exits shadow 17:11:35 38° 309° (NW) 1,445 4.4 -20.8°
Maximum altitude 17:13:30 50° 261° (W) 1,216 4.2 -20.4°
Drops below altitude 10° 17:19:31 10° 186° (S) 2,712 6.6 -19.4°
Sets 17:22:07 0° 180° (S) 3,662 7.5 -18.9°
